Location: Prairie View Elementary School
(39.8322°N, 99.5698°W)
Time: 03:11:52
(UTC+00:00)

Cosmos 1417 Rocket - Pass Details

Date: 08 December 2019
Orbit: 952 x 999 km, 83.0° (Epoch: 17 January)

Event Time Altitude Azimuth Distance (km) Brightness Sun altitude
Rises 01:39:35 0° 353° (N) 3,637 7.5 -27.3°
Reaches altitude 10° 01:42:05 10° 353° (N) 2,686 6.8 -27.8°
Maximum altitude 01:48:14 87° 84° (E) 959 4.3 -29.0°
Drops below altitude 10° 01:54:22 10° 174° (S) 2,677 6.8 -30.1°
Sets 01:56:51 0° 174° (S) 3,624 7.5 -30.6°
